Hourly Data Report for October 24, 2014

All times are specified in Local Standard Time (LST). Add 1 hour to adjust for Daylight Saving Time where and when it is observed.

WINNIPEG A CS
MANITOBA

49°55'00.000" N
97°14'58.000" W
238.70 m
502S001
71849
XWG

Download Data

Hourly Data (October 2014)
Hourly Data Report for October 24, 2014
Temp Definition
°C
Dew Point Temp Definition
°C
Rel Hum Definition
%
Wind Dir Definition
10's deg

Wind Spd Definition
km/h
Visibility Definition
km
Stn Press Definition
kPa
Hmdx Definition


Wind Chill Definition


Weather Definition


TIME
00:00 11.3 3.5 59 19 15   97.67     LegendNANA
01:00 10.7 3.3 60 20 20   97.66     LegendNANA
02:00 10.0 3.1 62 21 16   97.66     LegendNANA
03:00 9.1 2.8 65 22 13   97.65     LegendNANA
04:00 7.6 2.7 71 18 6   97.63     LegendNANA
05:00 9.1 2.7 64 23 14   97.61     LegendNANA
06:00 9.3 2.9 64 23 15   97.58     LegendNANA
07:00 8.5 3.0 68 20 13   97.58     LegendNANA
08:00 9.6 3.4 65 21 15   97.59     LegendNANA
09:00 11.4 4.5 63 22 17   97.58     LegendNANA
10:00 11.9 5.1 63 22 21   97.57     LegendNANA
11:00 13.3 6.0 61 22 21   97.51     LegendNANA
12:00 17.1 7.8 54 24 21   97.49     LegendNANA
13:00 18.8 5.1 40 27 35   97.44     LegendNANA
14:00 20.3 4.0 34 25 31   97.37     LegendNANA
15:00 19.5 2.0 31 28 40   97.44     LegendNANA
16:00 17.3 2.6 37 28 48   97.56     LegendNANA
17:00 15.4 2.5 42 28 30   97.66     LegendNANA
18:00 13.3 0.9 43 27 25   97.75     LegendNANA
19:00 12.1 1.3 48 27 23   97.76     LegendNANA
20:00 11.9 0.8 47 28 29   97.86     LegendNANA
21:00 11.5 0.7 48 28 33   97.92     LegendNANA
22:00 8.8 1.0 58 28 20   98.02     LegendNANA
23:00 5.4 0.4 70 30 13   98.14     LegendNANA

Notes on Data Quality.

Legend

  • E = Estimated
  • M = Missing
  • NA = Not Available
  • ‡ = Partner data that is not subject to review by the National Climate Archives
Date modified: